Вернуться в каталог

YUNHAI 2-2B

АктивенНаукаLEO
NORAD 59281·PAYLOAD·🇨🇳 China

Запущен Mar 21, 2024 с Jiuquan Satellite Launch Center

Loading…

Ближайшие Пролёты (ближайшие 24 часа)

TLE

СвежийSource: Space-Track

Эпоха: Sep 14, 2026, 15:42 UTC

1 59281U 24052B   26257.65451087 -.00000098  00000-0  25530-4 0  9993
2 59281  50.0119   3.3523 0004911 144.8863 215.2377 14.27999488129390

Отслеживайте YUNHAI 2-2B в реальном времени с AllMySat

Download on the App Store